Location: Praha
(50.0830°N, 14.4670°E)
Time: 20:02:58
(UTC+02:00)

ISS - Pass Details

Date: 02 May 2021
Orbit: 418 x 422 km, 51.6° (Epoch: 13 April)

Event Time Altitude Azimuth Distance (km) Brightness Sun altitude
Exits shadow 04:19:14 18° 230° (SW) 1,101 -2.3 -11.2°
Maximum altitude 04:21:31 57° 156° (SSE) 502 -3.5 -10.9°
Drops below altitude 10° 04:24:51 10° 76° (ENE) 1,509 0.2 -10.5°
Sets 04:26:59 0° 73° (ENE) 2,376 1.5 -10.2°
